ATLAS 5 CENTAUR DEB, 46601

Orbit data source: Space-Track

ATLAS 5 CENTAUR DEB, 46601 is space debris in HEO originally from a launch on Wed, 17 Oct 2018 UTC launched from the Air Force Eastern Test Range (AFETR). Debris objects in space refer to the collection of defunct objects orbiting the Earth. Examples of debris include non-operational satellites, rocket bodies, and fragments generated from explosions, collisions, or faulty payload assembly.

Loading next visibility...
Identifier
46601, 2018-079BZ
Orbit
HEO
Country
Flag of USUS
Related business
Flag of USUnited Launch Alliance/Lockheed Martin (US)
Manufacturer
ULA Decatur
Mission
Spacecraft
Bus & Motor
Unknown
Mass
Unknown
Launch date (UTC)
2018-10-17 (8 years ago)
Launch vehicle
Unknown
Launch site
Air Force Eastern Test Range (AFETR)
Object type
Payload
Rocket body
Debris
Shape & HBR
Unknown shape, 1.1 m
Radar Cross Section
RCS unknown

Expand to show TLE details & history
Last TLE update: 2 days ago

TLE from 2 days ago
0 ATLAS 5 CENTAUR DEB
1 46601U 18079BZ  26206.67482495 -.00000139  00000-0  00000-0 0  9997
2 46601  13.1252  32.7134 4462893 327.2886  11.5123  1.85733895 42216
Epoch: 2026-07-25T16:11Z
TLE epoch observation values (Epoch: 2026-07-25T16:11:44.875Z)
Latitude
0.00003°
Longitude
-153.58703°
Altitude
9,922.544 km
Speed
5.886 km/s
True Right ascension
02h 10m 56s
True Declination
0° 00' 00"
Sunlit
Object was in daylight at epoch
Visualization orbit readout
Latitude
Unknown
Longitude
Unknown
Altitude
Unknown
Speed
Unknown
Apparent Right ascension
Unknown
Apparent Declination
Unknown
Sunlit
N/A
Visualization observer readout
Local Sidereal Time
09:21:28
Azimuth
Unknown
Elevation
Unknown
Doppler factor
Unknown
Orbital elements
Apogee altitude
34,057.226 km
Perigee altitude
9,102.509 km
Semi-major axis
27,958.005 km
Eccentricity
0.44629
Inclination
13.1252°
RAAN
32.7134°
Arg. of periapsis
327.2886°
True anomaly
32.49557°
Mean anomaly
11.5123°
Eccentric anomaly
20.44376°
Mean motion
0.46428 °/min
Orbital period
775.39 mins
BSTAR
0
Loading maneuver chart data...
Computing Atmospheric mass density...

Documentation

Showing up to 5 results
|